Flag for Netherlands Weather past 2 weeks in Kralendijk, Bonaire, Netherlands

Now
79 °F

Passing clouds.


Feels Like: 81 °F
Forecast: 77 / 85 °F
Wind: 18 mph from Northeast

Location: Flamingo Airport - Bonaire

Current Time: Mar 3, 2015 at 8:48:40 PM

Latest Report: Mar 3, 2015 at 8:00 PM


Visibility: N/A

Pressure: 29.89 "Hg

Humidity: 74%

Dew point: 70 °F

Location of KralendijkLocation

Historic Weather in Kralendijk — Graph

°F

Kralendijk temperature yesterday

Maximum temperature yesterday: 86 °F (at 12:00 PM)
Minimum temperature yesterday: 75 °F (at 12:00 AM)
Average temperature yesterday: 81 °F

Past Weeks' High & Low Weather Summary

 TemperatureHumidityPressure
High88 °F (Feb 21, 2:00 PM)89% (Mar 3, 7:00 AM)30.04 "Hg (Mar 3, 7:00 AM)
Low73 °F (Mar 3, 6:00 AM)59% (Feb 19, 3:00 PM)29.86 "Hg (Feb 18, 6:00 PM)
Average81 °F73%29.93 "Hg
* Reported Feb 16 7:00 PM — Mar 3 7:00 PM, Kralendijk, Weather by CustomWeather, © 2015

Note: Actual official high and low records may vary slightly from our data, if they occured in-between our weather recording intervals... More about our weather records

Advertising

Kralendijk weather history for previous 24 hours

 ConditionsComfort  
Time TempWeatherWind HumidityBarometerVisibility
7:00 PM
Tue, Mar 3
79 °FPassing clouds.16 mph74%29.89 "HgN/A
6:00 PM81 °FScattered clouds.18 mph70%29.86 "HgN/A
5:00 PM82 °FScattered clouds.18 mph70%29.86 "HgN/A
4:00 PM82 °FScattered clouds.16 mph70%29.89 "HgN/A
3:00 PM84 °FScattered clouds.17 mph70%29.89 "HgN/A
2:00 PM84 °FPartly sunny.16 mph70%29.89 "HgN/A
1:00 PM86 °FScattered clouds.17 mph70%29.95 "HgN/A
12:00 PM84 °FWarm.16 mph74%29.98 "HgN/A
11:00 AM82 °FScattered clouds.14 mph79%29.98 "HgN/A
10:55 AM82 °FScattered clouds.14 mph79%29.98 "HgN/A
10:00 AM81 °FScattered showers. Scattered clouds.12 mph84%29.98 "HgN/A
8:00 AM73 °FSprinkles. Partly sunny.8 mph83%29.95 "Hg5 mi
7:00 AM73 °FMild.3 mph89%29.92 "HgN/A
6:00 AM73 °FMild.5 mph83%29.89 "HgN/A
3:00 AM77 °FWarm.14 mph74%29.89 "HgN/A
2:00 AM79 °FWarm.12 mph70%29.92 "HgN/A
1:00 AM79 °FWarm.13 mph70%29.92 "HgN/A
12:00 AM79 °FWarm.10 mph70%29.95 "HgN/A
11:00 PM
Mon, Mar 2
79 °FWarm.10 mph70%29.95 "HgN/A
10:00 PM79 °FWarm.10 mph70%29.95 "HgN/A
9:00 PM79 °FWarm.14 mph70%29.95 "HgN/A
8:00 PM79 °FWarm.14 mph70%29.92 "HgN/A
Weather by CustomWeather, © 2015

See weather overviewHow to use our weather pages